THOR AGENA B R/B, 2174

Orbit data source: Space-Track

THOR AGENA B R/B, 2174 is space debris in SSO originally from a launch on Sun, 15 May 1966 UTC launched from the Air Force Western Test Range (AFWTR). Debris objects in space refer to the collection of defunct objects orbiting the Earth. Examples of debris include non-operational satellites, rocket bodies, and fragments generated from explosions, collisions, or faulty payload assembly.

Loading next visibility...
Identifier
2174, 1966-040B
Orbit
SSO
Country
Flag of USUS
Related business
Manufacturer
LMSC
Mission
Spacecraft
Bus & Motor
AGENA B, Unknown motor
Mass
600 kg wet, 600 kg dry
Launch date (UTC)
1966-05-15 (60 years ago)
Launch vehicle
Unknown
Launch site
Air Force Western Test Range (AFWTR)
Object type
Payload
Rocket body
Debris
Shape & HBR
CYL, 1.1 m
Radar Cross Section
Large (>1 m²)

Expand to show TLE details & history
Last TLE update: 12 hours ago

TLE from 12 hours ago
0 THOR AGENA B R/B
1  2174U 66040B   26262.55357426 -.00000007  00000-0  75961-4 0  9995
2  2174 100.3247 190.1836 0055972 177.4572 356.3109 13.36314347941828
Epoch: 2026-09-19T13:17Z
TLE epoch observation values (Epoch: 2026-09-19T13:17:08.816Z)
Latitude
6.09681°
Longitude
173.54566°
Altitude
1,083.297 km
Speed
7.331 km/s
True Right ascension
00h 45m 10s
True Declination
6° 03' 44"
Sunlit
Object was in full shadow at epoch
Visualization orbit readout
Latitude
Unknown
Longitude
Unknown
Altitude
Unknown
Speed
Unknown
Apparent Right ascension
Unknown
Apparent Declination
Unknown
Sunlit
N/A
Visualization observer readout
Local Sidereal Time
18:20:28
Azimuth
Unknown
Elevation
Unknown
Doppler factor
Unknown
Orbital elements
Apogee altitude
1,162.363 km
Perigee altitude
1,078.422 km
Semi-major axis
7,498.53 km
Eccentricity
0.0056
Inclination
100.3247°
RAAN
190.1836°
Arg. of periapsis
177.4572°
True anomaly
356.26934°
Mean anomaly
356.3109°
Eccentric anomaly
356.29015°
Mean motion
3.34256 °/min
Orbital period
107.7 mins
BSTAR
0.000075961
Loading maneuver chart data...
Computing Atmospheric mass density...
Loading historical data...
Loading historical data...
Loading historical data...
Loading historical data...
Loading historical data...
Loading historical data...
Loading historical data...

Documentation

Showing up to 5 results
|